owner,sensor,date,latitude,longitude,vertical_datum,mass_concentration_of_oxygen_in_sea_water,qcFlag 
SCCF RECON,ioos:station:SCCF:11:1,2017-05-01T00:00:00Z,26.4679,-82.0631,2.108,5.73,1111122 
SCCF RECON,ioos:station:SCCF:11:1,2017-05-01T01:00:00Z,26.4679,-82.0631,1.983,5.54,1111122 
SCCF RECON,ioos:station:SCCF:11:1,2017-05-01T02:00:00Z,26.4679,-82.0631,1.83,5.2,1111122 
SCCF RECON,ioos:station:SCCF:11:1,2017-05-01T03:00:00Z,26.4679,-82.0631,1.685,4.97,1111122 
SCCF RECON,ioos:station:SCCF:11:1,2017-05-01T04:00:00Z,26.4679,-82.0631,1.56,4.64,1111122 
SCCF RECON,ioos:station:SCCF:11:1,2017-05-01T05:00:00Z,26.4679,-82.0631,1.483,4.5,1111122 
SCCF RECON,ioos:station:SCCF:11:1,2017-05-01T06:00:00Z,26.4679,-82.0631,1.48,4.85,1111122 
SCCF RECON,ioos:station:SCCF:11:1,2017-05-01T07:00:00Z,26.4679,-82.0631,1.595,4.95,1111122 
SCCF RECON,ioos:station:SCCF:11:1,2017-05-01T08:00:00Z,26.4679,-82.0631,1.7,4.82,1111122 
SCCF RECON,ioos:station:SCCF:11:1,2017-05-01T09:00:00Z,26.4679,-82.0631,1.81,4.83,1111122 
SCCF RECON,ioos:station:SCCF:11:1,2017-05-01T10:00:00Z,26.4679,-82.0631,1.91,4.76,1111122 
SCCF RECON,ioos:station:SCCF:11:1,2017-05-01T11:00:00Z,26.4679,-82.0631,1.979,4.57,1111122 
SCCF RECON,ioos:station:SCCF:11:1,2017-05-01T12:00:00Z,26.4679,-82.0631,2.01,4.62,1111122 
SCCF RECON,ioos:station:SCCF:11:1,2017-05-01T13:00:00Z,26.4679,-82.0631,2.04,4.65,1111122 
SCCF RECON,ioos:station:SCCF:11:1,2017-05-01T14:00:00Z,26.4679,-82.0631,2.04,4.68,1111122 
SCCF RECON,ioos:station:SCCF:11:1,2017-05-01T15:00:00Z,26.4679,-82.0631,2.01,4.68,1111122 
SCCF RECON,ioos:station:SCCF:11:1,2017-05-01T16:00:00Z,26.4679,-82.0631,1.985,5.02,1111122 
SCCF RECON,ioos:station:SCCF:11:1,2017-05-01T17:00:00Z,26.4679,-82.0631,1.99,5.29,1111122 
SCCF RECON,ioos:station:SCCF:11:1,2017-05-01T18:00:00Z,26.4679,-82.0631,1.991,5.36,1111122 
SCCF RECON,ioos:station:SCCF:11:1,2017-05-01T19:00:00Z,26.4679,-82.0631,2.06,5.34,1111122 
SCCF RECON,ioos:station:SCCF:11:1,2017-05-01T20:00:00Z,26.4679,-82.0631,2.12,5.5,1111122 
SCCF RECON,ioos:station:SCCF:11:1,2017-05-01T21:00:00Z,26.4679,-82.0631,2.166,5.46,1111122 
SCCF RECON,ioos:station:SCCF:11:1,2017-05-01T22:00:00Z,26.4679,-82.0631,2.17,5.25,1111122 
SCCF RECON,ioos:station:SCCF:11:1,2017-05-01T23:00:00Z,26.4679,-82.0631,2.16,6.74,1111122 
SCCF RECON,ioos:station:SCCF:11:1,2017-05-02T00:00:00Z,26.4679,-82.0631,2.1,6.44,1111122 
SCCF RECON,ioos:station:SCCF:11:1,2017-05-02T01:00:00Z,26.4679,-82.0631,1.98,5.73,1111122 
SCCF RECON,ioos:station:SCCF:11:1,2017-05-02T02:00:00Z,26.4679,-82.0631,1.86,5.57,1111122 
SCCF RECON,ioos:station:SCCF:11:1,2017-05-02T03:00:00Z,26.4679,-82.0631,1.742,5.41,1111122 
SCCF RECON,ioos:station:SCCF:11:1,2017-05-02T04:00:00Z,26.4679,-82.0631,1.65,5.12,1111122 
SCCF RECON,ioos:station:SCCF:11:1,2017-05-02T05:00:00Z,26.4679,-82.0631,1.58,4.75,1111122 
SCCF RECON,ioos:station:SCCF:11:1,2017-05-02T06:00:00Z,26.4679,-82.0631,1.53,4.76,1111122 
SCCF RECON,ioos:station:SCCF:11:1,2017-05-02T07:00:00Z,26.4679,-82.0631,1.55,4.82,1111122 
SCCF RECON,ioos:station:SCCF:11:1,2017-05-02T08:00:00Z,26.4679,-82.0631,1.63,4.74,1111122 
SCCF RECON,ioos:station:SCCF:11:1,2017-05-02T09:00:00Z,26.4679,-82.0631,1.73,4.6,1111122 
SCCF RECON,ioos:station:SCCF:11:1,2017-05-02T10:00:00Z,26.4679,-82.0631,1.84,4.34,1111122 
SCCF RECON,ioos:station:SCCF:11:1,2017-05-02T11:00:00Z,26.4679,-82.0631,1.95,4.54,1111122 
SCCF RECON,ioos:station:SCCF:11:1,2017-05-02T12:00:00Z,26.4679,-82.0631,2.0,4.68,1111122 
SCCF RECON,ioos:station:SCCF:11:1,2017-05-02T13:00:00Z,26.4679,-82.0631,2.03,4.72,1111122 
SCCF RECON,ioos:station:SCCF:11:1,2017-05-02T14:00:00Z,26.4679,-82.0631,2.022,4.57,1111122 
SCCF RECON,ioos:station:SCCF:11:1,2017-05-02T15:00:00Z,26.4679,-82.0631,2.0,4.7,1111122 
SCCF RECON,ioos:station:SCCF:11:1,2017-05-02T16:00:00Z,26.4679,-82.0631,1.98,4.79,1111122 
SCCF RECON,ioos:station:SCCF:11:1,2017-05-02T17:00:00Z,26.4679,-82.0631,1.977,5.09,1111122 
SCCF RECON,ioos:station:SCCF:11:1,2017-05-02T18:00:00Z,26.4679,-82.0631,1.96,5.29,1111122 
SCCF RECON,ioos:station:SCCF:11:1,2017-05-02T19:00:00Z,26.4679,-82.0631,1.99,6.34,1111122 
SCCF RECON,ioos:station:SCCF:11:1,2017-05-02T20:00:00Z,26.4679,-82.0631,2.03,6.3,1111122 
SCCF RECON,ioos:station:SCCF:11:1,2017-05-02T21:00:00Z,26.4679,-82.0631,2.06,6.63,1111122 
SCCF RECON,ioos:station:SCCF:11:1,2017-05-02T22:00:00Z,26.4679,-82.0631,2.071,6.06,1111122 
SCCF RECON,ioos:station:SCCF:11:1,2017-05-02T23:00:00Z,26.4679,-82.0631,2.08,6.15,1111122 
SCCF RECON,ioos:station:SCCF:11:1,2017-05-03T00:00:00Z,26.4679,-82.0631,2.1,6.47,1111122 
SCCF RECON,ioos:station:SCCF:11:1,2017-05-03T01:00:00Z,26.4679,-82.0631,2.07,6.71,1111122 
SCCF RECON,ioos:station:SCCF:11:1,2017-05-03T02:00:00Z,26.4679,-82.0631,2.01,7.07,1111122 
SCCF RECON,ioos:station:SCCF:11:1,2017-05-03T03:00:00Z,26.4679,-82.0631,1.91,5.95,1111122 
SCCF RECON,ioos:station:SCCF:11:1,2017-05-03T04:00:00Z,26.4679,-82.0631,1.79,5.51,1111122 
SCCF RECON,ioos:station:SCCF:11:1,2017-05-03T05:00:00Z,26.4679,-82.0631,1.67,5.2,1111122 
SCCF RECON,ioos:station:SCCF:11:1,2017-05-03T06:00:00Z,26.4679,-82.0631,1.567,4.93,1111122 
SCCF RECON,ioos:station:SCCF:11:1,2017-05-03T07:00:00Z,26.4679,-82.0631,1.52,5.03,1111122 
SCCF RECON,ioos:station:SCCF:11:1,2017-05-03T08:00:00Z,26.4679,-82.0631,1.53,4.73,1111122 
SCCF RECON,ioos:station:SCCF:11:1,2017-05-03T09:00:00Z,26.4679,-82.0631,1.6,4.75,1111122 
SCCF RECON,ioos:station:SCCF:11:1,2017-05-03T10:00:00Z,26.4679,-82.0631,1.7,4.7,1111122 
SCCF RECON,ioos:station:SCCF:11:1,2017-05-03T11:00:00Z,26.4679,-82.0631,1.79,4.5,1111122 
SCCF RECON,ioos:station:SCCF:11:1,2017-05-03T12:00:00Z,26.4679,-82.0631,1.878,4.56,1111122 
SCCF RECON,ioos:station:SCCF:11:1,2017-05-03T13:00:00Z,26.4679,-82.0631,1.951,4.56,1111122 
SCCF RECON,ioos:station:SCCF:11:1,2017-05-03T14:00:00Z,26.4679,-82.0631,2.0,4.52,1111122 
SCCF RECON,ioos:station:SCCF:11:1,2017-05-03T15:00:00Z,26.4679,-82.0631,2.01,4.84,1111122 
SCCF RECON,ioos:station:SCCF:11:1,2017-05-03T16:00:00Z,26.4679,-82.0631,1.98,5.09,1111122 
SCCF RECON,ioos:station:SCCF:11:1,2017-05-03T17:00:00Z,26.4679,-82.0631,1.944,5.09,1111122 
SCCF RECON,ioos:station:SCCF:11:1,2017-05-03T18:00:00Z,26.4679,-82.0631,1.89,5.35,1111122 
SCCF RECON,ioos:station:SCCF:11:1,2017-05-03T19:00:00Z,26.4679,-82.0631,1.85,5.51,1111122 
SCCF RECON,ioos:station:SCCF:11:1,2017-05-03T20:00:00Z,26.4679,-82.0631,1.81,5.98,1111122 
SCCF RECON,ioos:station:SCCF:11:1,2017-05-03T21:00:00Z,26.4679,-82.0631,1.85,5.99,1111122 
SCCF RECON,ioos:station:SCCF:11:1,2017-05-03T22:00:00Z,26.4679,-82.0631,1.9,5.74,1111122 
SCCF RECON,ioos:station:SCCF:11:1,2017-05-03T23:00:00Z,26.4679,-82.0631,1.94,5.56,1111122 
SCCF RECON,ioos:station:SCCF:11:1,2017-05-04T00:00:00Z,26.4679,-82.0631,2.0,5.69,1111122 
SCCF RECON,ioos:station:SCCF:11:1,2017-05-04T01:00:00Z,26.4679,-82.0631,2.03,5.39,1111122 
SCCF RECON,ioos:station:SCCF:11:1,2017-05-04T02:00:00Z,26.4679,-82.0631,2.039,5.13,1111122 
SCCF RECON,ioos:station:SCCF:11:1,2017-05-04T03:00:00Z,26.4679,-82.0631,2.03,5.88,1111122 
SCCF RECON,ioos:station:SCCF:11:1,2017-05-04T04:00:00Z,26.4679,-82.0631,1.984,5.75,1111122 
SCCF RECON,ioos:station:SCCF:11:1,2017-05-04T05:00:00Z,26.4679,-82.0631,1.871,5.49,1111122 
SCCF RECON,ioos:station:SCCF:11:1,2017-05-04T06:00:00Z,26.4679,-82.0631,1.75,5.5,1111122 
SCCF RECON,ioos:station:SCCF:11:1,2017-05-04T07:00:00Z,26.4679,-82.0631,1.65,5.35,1111122 
SCCF RECON,ioos:station:SCCF:11:1,2017-05-04T08:00:00Z,26.4679,-82.0631,1.59,4.79,1111122 
SCCF RECON,ioos:station:SCCF:11:1,2017-05-04T09:00:00Z,26.4679,-82.0631,1.58,5.05,1111122 
SCCF RECON,ioos:station:SCCF:11:1,2017-05-04T10:00:00Z,26.4679,-82.0631,1.64,4.74,1111122 
SCCF RECON,ioos:station:SCCF:11:1,2017-05-04T11:00:00Z,26.4679,-82.0631,1.729,4.59,1111122 
SCCF RECON,ioos:station:SCCF:11:1,2017-05-04T12:00:00Z,26.4679,-82.0631,1.83,4.73,1111122 
SCCF RECON,ioos:station:SCCF:11:1,2017-05-04T13:00:00Z,26.4679,-82.0631,1.94,4.67,1111122 
SCCF RECON,ioos:station:SCCF:11:1,2017-05-04T14:00:00Z,26.4679,-82.0631,2.02,4.61,1111122 
SCCF RECON,ioos:station:SCCF:11:1,2017-05-04T15:00:00Z,26.4679,-82.0631,2.08,4.87,1111122 
SCCF RECON,ioos:station:SCCF:11:1,2017-05-04T16:00:00Z,26.4679,-82.0631,2.14,4.9,1111122 
SCCF RECON,ioos:station:SCCF:11:1,2017-05-04T17:00:00Z,26.4679,-82.0631,2.119,5.47,1111122 
SCCF RECON,ioos:station:SCCF:11:1,2017-05-04T18:00:00Z,26.4679,-82.0631,2.029,5.48,1111122 
SCCF RECON,ioos:station:SCCF:11:1,2017-05-04T19:00:00Z,26.4679,-82.0631,1.94,5.75,1111122 
SCCF RECON,ioos:station:SCCF:11:1,2017-05-04T20:00:00Z,26.4679,-82.0631,1.88,6.2,1111122 
SCCF RECON,ioos:station:SCCF:11:1,2017-05-04T21:00:00Z,26.4679,-82.0631,1.848,5.73,1111122 
SCCF RECON,ioos:station:SCCF:11:1,2017-05-04T22:00:00Z,26.4679,-82.0631,1.849,5.91,1111122 
SCCF RECON,ioos:station:SCCF:11:1,2017-05-04T23:00:00Z,26.4679,-82.0631,1.85,5.2,1111122 
SCCF RECON,ioos:station:SCCF:11:1,2017-05-05T00:00:00Z,26.4679,-82.0631,1.92,5.21,1111122 
SCCF RECON,ioos:station:SCCF:11:1,2017-05-05T01:00:00Z,26.4679,-82.0631,1.98,5.16,1111122 
SCCF RECON,ioos:station:SCCF:11:1,2017-05-05T02:00:00Z,26.4679,-82.0631,1.991,5.58,1111122 
SCCF RECON,ioos:station:SCCF:11:1,2017-05-05T03:00:00Z,26.4679,-82.0631,1.97,5.24,1111122 
SCCF RECON,ioos:station:SCCF:11:1,2017-05-05T04:00:00Z,26.4679,-82.0631,1.938,5.36,1111122 
SCCF RECON,ioos:station:SCCF:11:1,2017-05-05T05:00:00Z,26.4679,-82.0631,1.887,5.14,1111122 
SCCF RECON,ioos:station:SCCF:11:1,2017-05-05T06:00:00Z,26.4679,-82.0631,1.84,4.55,1111122 
SCCF RECON,ioos:station:SCCF:11:1,2017-05-05T07:00:00Z,26.4679,-82.0631,1.8,4.74,1111122 
SCCF RECON,ioos:station:SCCF:11:1,2017-05-05T08:00:00Z,26.4679,-82.0631,1.73,4.76,1111122 
SCCF RECON,ioos:station:SCCF:11:1,2017-05-05T09:00:00Z,26.4679,-82.0631,1.66,4.54,1111122 
SCCF RECON,ioos:station:SCCF:11:1,2017-05-05T10:00:00Z,26.4679,-82.0631,1.661,4.5,1111122 
SCCF RECON,ioos:station:SCCF:11:1,2017-05-05T11:00:00Z,26.4679,-82.0631,1.74,4.6,1111122 
SCCF RECON,ioos:station:SCCF:11:1,2017-05-05T12:00:00Z,26.4679,-82.0631,1.82,4.62,1111122 
SCCF RECON,ioos:station:SCCF:11:1,2017-05-05T13:00:00Z,26.4679,-82.0631,1.93,4.75,1111122 
SCCF RECON,ioos:station:SCCF:11:1,2017-05-05T14:00:00Z,26.4679,-82.0631,2.039,4.68,1111122 
SCCF RECON,ioos:station:SCCF:11:1,2017-05-05T15:00:00Z,26.4679,-82.0631,2.09,4.85,1111122 
SCCF RECON,ioos:station:SCCF:11:1,2017-05-05T16:00:00Z,26.4679,-82.0631,2.11,4.9,1111122 
SCCF RECON,ioos:station:SCCF:11:1,2017-05-05T17:00:00Z,26.4679,-82.0631,2.05,5.06,1111122 
SCCF RECON,ioos:station:SCCF:11:1,2017-05-05T18:00:00Z,26.4679,-82.0631,1.951,5.0,1111122 
SCCF RECON,ioos:station:SCCF:11:1,2017-05-05T19:00:00Z,26.4679,-82.0631,1.86,5.21,1111122 
SCCF RECON,ioos:station:SCCF:11:1,2017-05-05T20:00:00Z,26.4679,-82.0631,1.77,5.36,1111122 
SCCF RECON,ioos:station:SCCF:11:1,2017-05-05T21:00:00Z,26.4679,-82.0631,1.69,5.49,1111122 
SCCF RECON,ioos:station:SCCF:11:1,2017-05-05T22:00:00Z,26.4679,-82.0631,1.63,5.69,1111122 
SCCF RECON,ioos:station:SCCF:11:1,2017-05-05T23:00:00Z,26.4679,-82.0631,1.64,5.67,1111122 
SCCF RECON,ioos:station:SCCF:11:1,2017-05-06T00:00:00Z,26.4679,-82.0631,1.69,5.43,1111122 
SCCF RECON,ioos:station:SCCF:11:1,2017-05-06T01:00:00Z,26.4679,-82.0631,1.763,5.23,1111122 
SCCF RECON,ioos:station:SCCF:11:1,2017-05-06T02:00:00Z,26.4679,-82.0631,1.84,5.16,1111122 
SCCF RECON,ioos:station:SCCF:11:1,2017-05-06T03:00:00Z,26.4679,-82.0631,1.93,5.05,1111122 
SCCF RECON,ioos:station:SCCF:11:1,2017-05-06T04:00:00Z,26.4679,-82.0631,2.0,4.79,1111122 
SCCF RECON,ioos:station:SCCF:11:1,2017-05-06T05:00:00Z,26.4679,-82.0631,2.02,4.88,1111122 
SCCF RECON,ioos:station:SCCF:11:1,2017-05-06T06:00:00Z,26.4679,-82.0631,1.966,4.84,1111122 
SCCF RECON,ioos:station:SCCF:11:1,2017-05-06T07:00:00Z,26.4679,-82.0631,1.858,4.59,1111122 
SCCF RECON,ioos:station:SCCF:11:1,2017-05-06T08:00:00Z,26.4679,-82.0631,1.77,4.62,1111122 
SCCF RECON,ioos:station:SCCF:11:1,2017-05-06T09:00:00Z,26.4679,-82.0631,1.69,4.61,1111122 
SCCF RECON,ioos:station:SCCF:11:1,2017-05-06T10:00:00Z,26.4679,-82.0631,1.6,4.46,1111122 
SCCF RECON,ioos:station:SCCF:11:1,2017-05-06T11:00:00Z,26.4679,-82.0631,1.547,4.37,1111122 
SCCF RECON,ioos:station:SCCF:11:1,2017-05-06T12:00:00Z,26.4679,-82.0631,1.56,4.57,1111122 
SCCF RECON,ioos:station:SCCF:11:1,2017-05-06T13:00:00Z,26.4679,-82.0631,1.65,4.56,1111122 
SCCF RECON,ioos:station:SCCF:11:1,2017-05-06T14:00:00Z,26.4679,-82.0631,1.781,4.76,1111122 
SCCF RECON,ioos:station:SCCF:11:1,2017-05-06T15:00:00Z,26.4679,-82.0631,1.91,4.84,1111122 
SCCF RECON,ioos:station:SCCF:11:1,2017-05-06T16:00:00Z,26.4679,-82.0631,1.98,5.06,1111122 
SCCF RECON,ioos:station:SCCF:11:1,2017-05-06T17:00:00Z,26.4679,-82.0631,1.958,5.18,1111122 
SCCF RECON,ioos:station:SCCF:11:1,2017-05-06T18:00:00Z,26.4679,-82.0631,1.88,5.62,1111122 
SCCF RECON,ioos:station:SCCF:11:1,2017-05-06T19:00:00Z,26.4679,-82.0631,1.798,5.66,1111122 
SCCF RECON,ioos:station:SCCF:11:1,2017-05-06T20:00:00Z,26.4679,-82.0631,1.71,5.86,1111122 
SCCF RECON,ioos:station:SCCF:11:1,2017-05-06T21:00:00Z,26.4679,-82.0631,1.639,5.9,1111122 
SCCF RECON,ioos:station:SCCF:11:1,2017-05-06T22:00:00Z,26.4679,-82.0631,1.58,6.22,1111122 
SCCF RECON,ioos:station:SCCF:11:1,2017-05-06T23:00:00Z,26.4679,-82.0631,1.566,6.08,1111122 
SCCF RECON,ioos:station:SCCF:11:1,2017-05-07T00:00:00Z,26.4679,-82.0631,1.58,5.73,1111122 
SCCF RECON,ioos:station:SCCF:11:1,2017-05-07T01:00:00Z,26.4679,-82.0631,1.66,5.46,1111122 
SCCF RECON,ioos:station:SCCF:11:1,2017-05-07T02:00:00Z,26.4679,-82.0631,1.758,5.43,1111122 
SCCF RECON,ioos:station:SCCF:11:1,2017-05-07T03:00:00Z,26.4679,-82.0631,1.85,5.46,1111122 
SCCF RECON,ioos:station:SCCF:11:1,2017-05-07T04:00:00Z,26.4679,-82.0631,1.92,5.07,1111122 
SCCF RECON,ioos:station:SCCF:11:1,2017-05-07T05:00:00Z,26.4679,-82.0631,1.95,4.96,1111122 
SCCF RECON,ioos:station:SCCF:11:1,2017-05-07T06:00:00Z,26.4679,-82.0631,1.94,4.99,1111122 
SCCF RECON,ioos:station:SCCF:11:1,2017-05-07T07:00:00Z,26.4679,-82.0631,1.87,4.81,1111122 
SCCF RECON,ioos:station:SCCF:11:1,2017-05-07T08:00:00Z,26.4679,-82.0631,1.79,4.59,1111122 
SCCF RECON,ioos:station:SCCF:11:1,2017-05-07T09:00:00Z,26.4679,-82.0631,1.71,4.54,1111122 
SCCF RECON,ioos:station:SCCF:11:1,2017-05-07T10:00:00Z,26.4679,-82.0631,1.658,4.37,1111122 
SCCF RECON,ioos:station:SCCF:11:1,2017-05-07T11:00:00Z,26.4679,-82.0631,1.63,4.29,1111122 
SCCF RECON,ioos:station:SCCF:11:1,2017-05-07T12:00:00Z,26.4679,-82.0631,1.66,4.32,1111122 
SCCF RECON,ioos:station:SCCF:11:1,2017-05-07T13:00:00Z,26.4679,-82.0631,1.76,4.47,1111122 
SCCF RECON,ioos:station:SCCF:11:1,2017-05-07T14:00:00Z,26.4679,-82.0631,1.88,4.5,1111122 
SCCF RECON,ioos:station:SCCF:11:1,2017-05-07T15:00:00Z,26.4679,-82.0631,1.98,4.5,1111122 
SCCF RECON,ioos:station:SCCF:11:1,2017-05-07T16:00:00Z,26.4679,-82.0631,2.06,4.64,1111122 
SCCF RECON,ioos:station:SCCF:11:1,2017-05-07T17:00:00Z,26.4679,-82.0631,2.08,4.88,1111122 
SCCF RECON,ioos:station:SCCF:11:1,2017-05-07T18:00:00Z,26.4679,-82.0631,2.02,5.34,1111122 
SCCF RECON,ioos:station:SCCF:11:1,2017-05-07T19:00:00Z,26.4679,-82.0631,1.92,5.43,1111122 
SCCF RECON,ioos:station:SCCF:11:1,2017-05-07T20:00:00Z,26.4679,-82.0631,1.796,5.44,1111122 
SCCF RECON,ioos:station:SCCF:11:1,2017-05-07T21:00:00Z,26.4679,-82.0631,1.68,5.54,1111122 
SCCF RECON,ioos:station:SCCF:11:1,2017-05-07T22:00:00Z,26.4679,-82.0631,1.58,5.6,1111122 
SCCF RECON,ioos:station:SCCF:11:1,2017-05-07T23:00:00Z,26.4679,-82.0631,1.5,5.85,1111122 
SCCF RECON,ioos:station:SCCF:11:1,2017-05-08T00:00:00Z,26.4679,-82.0631,1.475,5.75,1111122 
SCCF RECON,ioos:station:SCCF:11:1,2017-05-08T01:00:00Z,26.4679,-82.0631,1.51,5.27,1111122 
SCCF RECON,ioos:station:SCCF:11:1,2017-05-08T02:00:00Z,26.4679,-82.0631,1.6,5.29,1111122 
SCCF RECON,ioos:station:SCCF:11:1,2017-05-08T03:00:00Z,26.4679,-82.0631,1.71,5.28,1111122 
SCCF RECON,ioos:station:SCCF:11:1,2017-05-08T04:00:00Z,26.4679,-82.0631,1.805,5.08,1111122 
SCCF RECON,ioos:station:SCCF:11:1,2017-05-08T05:00:00Z,26.4679,-82.0631,1.873,4.58,1111122 
SCCF RECON,ioos:station:SCCF:11:1,2017-05-08T06:00:00Z,26.4679,-82.0631,1.905,4.96,1111122 
SCCF RECON,ioos:station:SCCF:11:1,2017-05-08T07:00:00Z,26.4679,-82.0631,1.87,4.73,1111122 
SCCF RECON,ioos:station:SCCF:11:1,2017-05-08T08:00:00Z,26.4679,-82.0631,1.79,4.75,1111122 
SCCF RECON,ioos:station:SCCF:11:1,2017-05-08T09:00:00Z,26.4679,-82.0631,1.717,4.52,1111122 
SCCF RECON,ioos:station:SCCF:11:1,2017-05-08T10:00:00Z,26.4679,-82.0631,1.64,4.22,1111122 
SCCF RECON,ioos:station:SCCF:11:1,2017-05-08T11:00:00Z,26.4679,-82.0631,1.59,4.24,1111122 
SCCF RECON,ioos:station:SCCF:11:1,2017-05-08T12:00:00Z,26.4679,-82.0631,1.59,4.38,1111122 
SCCF RECON,ioos:station:SCCF:11:1,2017-05-08T13:00:00Z,26.4679,-82.0631,1.661,4.52,1111122 
SCCF RECON,ioos:station:SCCF:11:1,2017-05-08T14:00:00Z,26.4679,-82.0631,1.78,4.73,1111122 
SCCF RECON,ioos:station:SCCF:11:1,2017-05-08T15:00:00Z,26.4679,-82.0631,1.9,4.64,1111122 
SCCF RECON,ioos:station:SCCF:11:1,2017-05-08T16:00:00Z,26.4679,-82.0631,2.0,4.92,1111122 
SCCF RECON,ioos:station:SCCF:11:1,2017-05-08T17:00:00Z,26.4679,-82.0631,2.07,5.09,1111122 
SCCF RECON,ioos:station:SCCF:11:1,2017-05-08T18:00:00Z,26.4679,-82.0631,2.07,5.11,1111122 
SCCF RECON,ioos:station:SCCF:11:1,2017-05-08T19:00:00Z,26.4679,-82.0631,2.001,5.59,1111122 
SCCF RECON,ioos:station:SCCF:11:1,2017-05-08T20:00:00Z,26.4679,-82.0631,1.9,5.61,1111122 
SCCF RECON,ioos:station:SCCF:11:1,2017-05-08T21:00:00Z,26.4679,-82.0631,1.77,5.58,1111122 
SCCF RECON,ioos:station:SCCF:11:1,2017-05-08T22:00:00Z,26.4679,-82.0631,1.651,5.63,1111122 
SCCF RECON,ioos:station:SCCF:11:1,2017-05-08T23:00:00Z,26.4679,-82.0631,1.55,5.49,1111122 
SCCF RECON,ioos:station:SCCF:11:1,2017-05-09T00:00:00Z,26.4679,-82.0631,1.49,5.7,1111122 
SCCF RECON,ioos:station:SCCF:11:1,2017-05-09T01:00:00Z,26.4679,-82.0631,1.49,5.11,1111122 
SCCF RECON,ioos:station:SCCF:11:1,2017-05-09T02:00:00Z,26.4679,-82.0631,1.56,5.01,1111122 
SCCF RECON,ioos:station:SCCF:11:1,2017-05-09T03:00:00Z,26.4679,-82.0631,1.67,4.98,1111122 
SCCF RECON,ioos:station:SCCF:11:1,2017-05-09T04:00:00Z,26.4679,-82.0631,1.79,4.96,1111122 
SCCF RECON,ioos:station:SCCF:11:1,2017-05-09T05:00:00Z,26.4679,-82.0631,1.88,4.7,1111122 
SCCF RECON,ioos:station:SCCF:11:1,2017-05-09T06:00:00Z,26.4679,-82.0631,1.942,4.69,1111122 
SCCF RECON,ioos:station:SCCF:11:1,2017-05-09T07:00:00Z,26.4679,-82.0631,1.94,4.53,1111122 
SCCF RECON,ioos:station:SCCF:11:1,2017-05-09T08:00:00Z,26.4679,-82.0631,1.869,4.5,1111122 
SCCF RECON,ioos:station:SCCF:11:1,2017-05-09T09:00:00Z,26.4679,-82.0631,1.78,4.22,1111122 
SCCF RECON,ioos:station:SCCF:11:1,2017-05-09T10:00:00Z,26.4679,-82.0631,1.71,4.22,1111122 
SCCF RECON,ioos:station:SCCF:11:1,2017-05-09T11:00:00Z,26.4679,-82.0631,1.66,4.14,1111122 
SCCF RECON,ioos:station:SCCF:11:1,2017-05-09T12:00:00Z,26.4679,-82.0631,1.63,3.96,1111122 
SCCF RECON,ioos:station:SCCF:11:1,2017-05-09T13:00:00Z,26.4679,-82.0631,1.68,4.02,1111122 
SCCF RECON,ioos:station:SCCF:11:1,2017-05-09T14:00:00Z,26.4679,-82.0631,1.78,4.3,1111122 
SCCF RECON,ioos:station:SCCF:11:1,2017-05-09T15:00:00Z,26.4679,-82.0631,1.9,4.59,1111122 
SCCF RECON,ioos:station:SCCF:11:1,2017-05-09T16:00:00Z,26.4679,-82.0631,2.0,4.39,1111122 
SCCF RECON,ioos:station:SCCF:11:1,2017-05-09T17:00:00Z,26.4679,-82.0631,2.08,4.48,1111122 
SCCF RECON,ioos:station:SCCF:11:1,2017-05-09T18:00:00Z,26.4679,-82.0631,2.11,4.7,1111122 
SCCF RECON,ioos:station:SCCF:11:1,2017-05-09T19:00:00Z,26.4679,-82.0631,2.07,5.07,1111122 
SCCF RECON,ioos:station:SCCF:11:1,2017-05-09T20:00:00Z,26.4679,-82.0631,1.98,5.22,1111122 
SCCF RECON,ioos:station:SCCF:11:1,2017-05-09T21:00:00Z,26.4679,-82.0631,1.85,5.16,1111122 
SCCF RECON,ioos:station:SCCF:11:1,2017-05-09T22:00:00Z,26.4679,-82.0631,1.721,5.17,1111122 
SCCF RECON,ioos:station:SCCF:11:1,2017-05-09T23:00:00Z,26.4679,-82.0631,1.595,5.23,1111122 
SCCF RECON,ioos:station:SCCF:11:1,2017-05-10T00:00:00Z,26.4679,-82.0631,1.48,5.19,1111122 
SCCF RECON,ioos:station:SCCF:11:1,2017-05-10T01:00:00Z,26.4679,-82.0631,1.43,5.15,1111122 
SCCF RECON,ioos:station:SCCF:11:1,2017-05-10T02:00:00Z,26.4679,-82.0631,1.471,4.94,1111122 
SCCF RECON,ioos:station:SCCF:11:1,2017-05-10T03:00:00Z,26.4679,-82.0631,1.58,5.02,1111122 
SCCF RECON,ioos:station:SCCF:11:1,2017-05-10T04:00:00Z,26.4679,-82.0631,1.7,4.65,1111122 
SCCF RECON,ioos:station:SCCF:11:1,2017-05-10T05:00:00Z,26.4679,-82.0631,1.808,4.49,1111122 
SCCF RECON,ioos:station:SCCF:11:1,2017-05-10T06:00:00Z,26.4679,-82.0631,1.891,4.56,1111122 
SCCF RECON,ioos:station:SCCF:11:1,2017-05-10T07:00:00Z,26.4679,-82.0631,1.93,4.59,1111122 
SCCF RECON,ioos:station:SCCF:11:1,2017-05-10T08:00:00Z,26.4679,-82.0631,1.905,4.54,1111122 
SCCF RECON,ioos:station:SCCF:11:1,2017-05-10T09:00:00Z,26.4679,-82.0631,1.83,4.29,1111122 
SCCF RECON,ioos:station:SCCF:11:1,2017-05-10T10:00:00Z,26.4679,-82.0631,1.77,4.01,1111122 
SCCF RECON,ioos:station:SCCF:11:1,2017-05-10T11:00:00Z,26.4679,-82.0631,1.71,3.89,1111122 
SCCF RECON,ioos:station:SCCF:11:1,2017-05-10T12:00:00Z,26.4679,-82.0631,1.66,3.8,1111122 
SCCF RECON,ioos:station:SCCF:11:1,2017-05-10T13:00:00Z,26.4679,-82.0631,1.66,3.84,1111122 
SCCF RECON,ioos:station:SCCF:11:1,2017-05-10T14:00:00Z,26.4679,-82.0631,1.74,4.3,1111122 
SCCF RECON,ioos:station:SCCF:11:1,2017-05-10T15:00:00Z,26.4679,-82.0631,1.88,4.52,1111122 
SCCF RECON,ioos:station:SCCF:11:1,2017-05-10T16:00:00Z,26.4679,-82.0631,2.0,4.46,1111122 
SCCF RECON,ioos:station:SCCF:11:1,2017-05-10T17:00:00Z,26.4679,-82.0631,2.09,4.58,1111122 
SCCF RECON,ioos:station:SCCF:11:1,2017-05-10T18:00:00Z,26.4679,-82.0631,2.14,4.85,1111122 
SCCF RECON,ioos:station:SCCF:11:1,2017-05-10T19:00:00Z,26.4679,-82.0631,2.125,5.06,1111122 
SCCF RECON,ioos:station:SCCF:11:1,2017-05-10T20:00:00Z,26.4679,-82.0631,2.03,5.59,1111122 
SCCF RECON,ioos:station:SCCF:11:1,2017-05-10T21:00:00Z,26.4679,-82.0631,1.901,5.38,1111122 
SCCF RECON,ioos:station:SCCF:11:1,2017-05-10T22:00:00Z,26.4679,-82.0631,1.77,5.16,1111122 
SCCF RECON,ioos:station:SCCF:11:1,2017-05-10T23:00:00Z,26.4679,-82.0631,1.64,5.3,1111122 
SCCF RECON,ioos:station:SCCF:11:1,2017-05-11T00:00:00Z,26.4679,-82.0631,1.52,5.24,1111122 
SCCF RECON,ioos:station:SCCF:11:1,2017-05-11T01:00:00Z,26.4679,-82.0631,1.45,5.1,1111122 
SCCF RECON,ioos:station:SCCF:11:1,2017-05-11T02:00:00Z,26.4679,-82.0631,1.46,4.96,1111122 
SCCF RECON,ioos:station:SCCF:11:1,2017-05-11T03:00:00Z,26.4679,-82.0631,1.56,5.01,1111122 
SCCF RECON,ioos:station:SCCF:11:1,2017-05-11T04:00:00Z,26.4679,-82.0631,1.69,4.96,1111122 
SCCF RECON,ioos:station:SCCF:11:1,2017-05-11T05:00:00Z,26.4679,-82.0631,1.8,4.97,1111122 
SCCF RECON,ioos:station:SCCF:11:1,2017-05-11T06:00:00Z,26.4679,-82.0631,1.906,4.86,1111122 
SCCF RECON,ioos:station:SCCF:11:1,2017-05-11T07:00:00Z,26.4679,-82.0631,1.97,5.0,1111122 
SCCF RECON,ioos:station:SCCF:11:1,2017-05-11T08:00:00Z,26.4679,-82.0631,1.98,5.01,1111122 
SCCF RECON,ioos:station:SCCF:11:1,2017-05-11T09:00:00Z,26.4679,-82.0631,1.923,4.88,1111122 
SCCF RECON,ioos:station:SCCF:11:1,2017-05-11T10:00:00Z,26.4679,-82.0631,1.85,4.62,1111122 
SCCF RECON,ioos:station:SCCF:11:1,2017-05-11T11:00:00Z,26.4679,-82.0631,1.781,4.53,1111122 
SCCF RECON,ioos:station:SCCF:11:1,2017-05-11T12:00:00Z,26.4679,-82.0631,1.73,4.36,1111122 
SCCF RECON,ioos:station:SCCF:11:1,2017-05-11T13:00:00Z,26.4679,-82.0631,1.71,4.34,1111122 
SCCF RECON,ioos:station:SCCF:11:1,2017-05-11T14:00:00Z,26.4679,-82.0631,1.742,4.49,1111122 
SCCF RECON,ioos:station:SCCF:11:1,2017-05-11T15:00:00Z,26.4679,-82.0631,1.84,5.04,1111122 
SCCF RECON,ioos:station:SCCF:11:1,2017-05-11T16:00:00Z,26.4679,-82.0631,1.944,5.45,1111122 
SCCF RECON,ioos:station:SCCF:11:1,2017-05-11T17:00:00Z,26.4679,-82.0631,2.05,5.58,1111122 
SCCF RECON,ioos:station:SCCF:11:1,2017-05-11T18:00:00Z,26.4679,-82.0631,2.119,5.63,1111122 
SCCF RECON,ioos:station:SCCF:11:1,2017-05-11T19:00:00Z,26.4679,-82.0631,2.113,5.93,1111122 
SCCF RECON,ioos:station:SCCF:11:1,2017-05-11T20:00:00Z,26.4679,-82.0631,2.041,6.27,1111122 
SCCF RECON,ioos:station:SCCF:11:1,2017-05-11T21:00:00Z,26.4679,-82.0631,1.93,6.21,1111122 